Tomahawk, WI

10:06 PM CDT on August 25, 2016 (GMT -0500)
Tomahawk

Weather History for KTKV - June, 2014

Change the Weather History Date:

Saturday, June 7, 2014

  Actual Average (KRHI) Record (KRHI)
Temperature  
Mean Temperature 60 °F 60 °F  
Max Temperature 67 °F 72 °F 93 °F (2011)
Min Temperature 51 °F 48 °F 30 °F (1998)
Degree Days  
Heating Degree Days 6 6  
Month to date heating degree days 50  
Since 1 June heating degree days 50  
Since 1 July heating degree days 8936  
Cooling Degree Days 0 1  
Month to date cooling degree days 7  
Year to date cooling degree days 19  
Since 1 June cooling degree days 7  
Growing Degree Days 10 (Base 50)    
Moisture  
Dew Point 53 °F    
Average Humidity 88    
Maximum Humidity 97    
Minimum Humidity 67    
Precipitation  
Precipitation 0.12 in 0.13 in 2.32 in (1946)
Month to date precipitation 0.89  
Year to date precipitation 10.57  
Snow  
Snow 0.00 in - 0.00 in ()
Month to date snowfall  
Since 1 June snowfall  
Since 1 July snowfall  
Snow Depth -    
Sea Level Pressure  
Sea Level Pressure 29.99 in    
Wind  
Wind Speed 2 mph (NNW)    
Max Wind Speed 12 mph    
Max Gust Speed 28 mph    
Visibility 9 miles    
Events Rain    
T = Trace of Precipitation, MM = Missing Value Source: NWS Daily Summary

Daily Weather History Graph

Daily Weather History Graph

Search for Another Location

Airport or City:

Trip Planner

Search our weather history database for the weather conditions in past years. The results will help you decide how hot, cold, wet, or windy it might be!

Date:

Astronomy

Jun. 07, 2014 Rise Set
Actual Time 5:11 AM CDT 8:45 PM CDT
Civil Twilight 4:34 AM CDT 9:22 PM CDT
Nautical Twilight 3:44 AM CDT 10:12 PM CDT
Astronomical Twilight 2:39 AM CDT 11:18 PM CDT
Moon 2:47 PM CDT (6/7) 1:49 AM CDT (6/7)
Length of Visible Light 16h 48m
Length of Day
15h 33m
Waxing Gibbous, 68% of the Moon is Illuminated
Jun 7
Waxing Gibbous
Jun 12
Full
Jun 19
Last Quarter
Jun 27
New
Jul 5
First Quarter

Hourly Weather History & Observations

Time (CDT) Temp. Dew Point Humidity Pressure Visibility Wind Dir Wind Speed Gust Speed Precip Events Conditions
12:15 AM 59.2 °F 56.3 °F 90% 29.99 in 10.0 mi Calm Calm - N/A   Scattered Clouds
12:35 AM 58.8 °F 55.8 °F 90% 29.98 in 10.0 mi Calm Calm - N/A   Scattered Clouds
12:55 AM 57.9 °F 55.6 °F 92% 29.97 in 10.0 mi Calm Calm - N/A   Clear
1:15 AM 56.3 °F 54.5 °F 94% 29.98 in 10.0 mi Calm Calm - N/A   Clear
1:35 AM 54.7 °F 52.7 °F 93% 29.99 in 7.0 mi Calm Calm - N/A   Clear
1:55 AM 54.9 °F 53.6 °F 96% 29.99 in 7.0 mi Calm Calm - N/A   Clear
2:15 AM 54.0 °F 52.3 °F 94% 29.99 in 3.0 mi Calm Calm - N/A   Mostly Cloudy
2:35 AM 55.9 °F 54.7 °F 96% 29.97 in 10.0 mi Calm Calm - N/A   Mostly Cloudy
2:55 AM 54.5 °F 53.1 °F 95% 29.97 in 7.0 mi Calm Calm - N/A   Scattered Clouds
3:15 AM 54.7 °F 53.4 °F 96% 29.97 in 7.0 mi Calm Calm - N/A   Scattered Clouds
3:35 AM 57.0 °F 55.9 °F 96% 29.97 in 10.0 mi Calm Calm - N/A   Scattered Clouds
3:55 AM 55.2 °F 54.0 °F 96% 29.98 in 7.0 mi Calm Calm - N/A   Mostly Cloudy
4:15 AM 55.8 °F 54.7 °F 96% 29.98 in 7.0 mi Calm Calm - N/A   Scattered Clouds
4:35 AM 55.4 °F 54.1 °F 96% 29.98 in 10.0 mi Calm Calm - N/A   Clear
4:55 AM 55.4 °F 54.0 °F 95% 29.99 in 10.0 mi Calm Calm - N/A   Clear
5:15 AM 55.6 °F 54.3 °F 96% 29.98 in 10.0 mi Calm Calm - N/A   Scattered Clouds
5:35 AM 55.8 °F 54.5 °F 96% 29.98 in 4.0 mi Calm Calm - N/A   Scattered Clouds
5:55 AM 56.3 °F 55.2 °F 96% 29.98 in 7.0 mi Calm Calm - N/A   Mostly Cloudy
6:15 AM 57.4 °F 56.3 °F 96% 29.98 in 10.0 mi Calm Calm - N/A   Overcast
6:35 AM 59.0 °F 58.1 °F 97% 29.98 in 7.0 mi Calm Calm - N/A   Overcast
6:55 AM 60.3 °F 58.5 °F 94% 29.97 in 10.0 mi Calm Calm - N/A   Overcast
7:15 AM 61.0 °F 58.5 °F 91% 29.97 in 10.0 mi Calm Calm - N/A   Scattered Clouds
7:35 AM 62.8 °F 59.0 °F 87% 29.97 in 10.0 mi Calm Calm - N/A   Clear
7:55 AM 63.7 °F 58.8 °F 84% 29.96 in 10.0 mi Calm Calm - N/A   Clear
8:15 AM 64.4 °F 59.2 °F 83% 29.97 in 10.0 mi Calm Calm - N/A   Scattered Clouds
8:35 AM 65.3 °F 59.2 °F 81% 29.97 in 10.0 mi Calm Calm - N/A   Overcast
8:55 AM 66.2 °F 58.8 °F 77% 29.97 in 10.0 mi Calm Calm - N/A   Overcast
9:15 AM 66.4 °F 59.0 °F 77% 29.97 in 10.0 mi Calm Calm - N/A   Overcast
9:35 AM 66.7 °F 59.7 °F 78% 29.97 in 10.0 mi Calm Calm - N/A   Overcast
9:55 AM 67.3 °F 60.1 °F 78% 29.98 in 10.0 mi WNW 11.5 mph - N/A   Overcast
10:15 AM 62.2 °F 56.3 °F 81% 30.01 in 10.0 mi NNW 10.4 mph 27.6 mph N/A   Overcast
10:35 AM 59.7 °F 49.6 °F 69% 30.01 in 10.0 mi NNW 11.5 mph 20.7 mph N/A   Overcast
10:55 AM 60.1 °F 49.6 °F 68% 30.01 in 10.0 mi NNW 11.5 mph 19.6 mph N/A   Scattered Clouds
11:15 AM 59.2 °F 48.2 °F 67% 30.01 in 10.0 mi North 8.1 mph 18.4 mph N/A   Clear
11:35 AM 59.0 °F 48.2 °F 67% 30.02 in 10.0 mi NNW 9.2 mph - N/A   Scattered Clouds
12:15 PM 56.5 °F 48.0 °F 73% 30.03 in 10.0 mi NW 10.4 mph - N/A   Overcast
12:35 PM 55.6 °F 48.2 °F 76% 30.02 in 7.0 mi NNW 5.8 mph - 0.04 in Rain Heavy Rain
12:55 PM 54.0 °F 49.6 °F 85% 30.02 in 4.0 mi North 3.5 mph - 0.08 in Rain Rain
1:15 PM 54.0 °F 50.2 °F 87% 30.00 in 4.0 mi North 4.6 mph - 0.01 in Rain Light Rain
1:35 PM 53.8 °F 50.5 °F 89% 29.98 in 4.0 mi NNE 5.8 mph - 0.03 in Rain Light Rain
1:55 PM 54.7 °F 50.9 °F 87% 29.99 in 10.0 mi NNE 3.5 mph - 0.03 in   Mostly Cloudy
2:15 PM 55.4 °F 51.6 °F 87% 29.98 in 10.0 mi Calm Calm - N/A   Overcast
2:35 PM 55.4 °F 51.3 °F 86% 29.97 in 10.0 mi Calm Calm - N/A   Overcast
2:55 PM 55.6 °F 51.3 °F 85% 29.96 in 10.0 mi Calm Calm - N/A   Overcast
3:15 PM 55.9 °F 51.6 °F 85% 29.96 in 10.0 mi Calm Calm - N/A   Overcast
3:35 PM 56.7 °F 51.6 °F 83% 29.97 in 10.0 mi Calm Calm - N/A   Mostly Cloudy
3:55 PM 56.5 °F 51.8 °F 84% 29.96 in 10.0 mi Calm Calm - N/A   Overcast
4:15 PM 56.5 °F 51.8 °F 84% 29.96 in 10.0 mi Calm Calm - N/A   Overcast
4:35 PM 56.8 °F 52.3 °F 85% 29.97 in 10.0 mi Calm Calm - N/A   Light Drizzle
4:55 PM 56.7 °F 52.7 °F 87% 29.96 in 7.0 mi Calm Calm - 0.01 in Rain Rain
5:15 PM 56.7 °F 53.2 °F 88% 29.96 in 10.0 mi Calm Calm - N/A Rain Light Rain
5:35 PM 56.7 °F 53.8 °F 90% 29.95 in 10.0 mi Calm Calm - N/A Rain Light Rain
5:55 PM 56.3 °F 53.8 °F 91% 29.97 in 10.0 mi Calm Calm - N/A   Light Drizzle
6:15 PM 55.8 °F 53.1 °F 91% 29.97 in 10.0 mi NW 5.8 mph - N/A   Mostly Cloudy
6:35 PM 55.8 °F 52.7 °F 89% 29.98 in 10.0 mi NNW 5.8 mph - N/A   Overcast
6:55 PM 55.8 °F 52.7 °F 89% 30.00 in 10.0 mi NW 8.1 mph - N/A   Overcast
7:15 PM 55.8 °F 52.0 °F 87% 30.00 in 10.0 mi North 3.5 mph - N/A   Mostly Cloudy
7:35 PM 55.8 °F 52.0 °F 87% 30.00 in 10.0 mi NW 3.5 mph - N/A   Scattered Clouds
7:55 PM 55.2 °F 52.3 °F 90% 30.00 in 10.0 mi NNW 5.8 mph - N/A   Scattered Clouds
8:15 PM 54.7 °F 51.6 °F 89% 30.01 in 10.0 mi NNW 4.6 mph - N/A   Scattered Clouds
8:35 PM 54.1 °F 50.9 °F 89% 30.02 in 10.0 mi NW 4.6 mph - N/A   Mostly Cloudy
8:55 PM 53.8 °F 50.2 °F 88% 30.02 in 10.0 mi NNW 5.8 mph - N/A   Overcast
9:15 PM 53.6 °F 50.0 °F 88% 30.03 in 10.0 mi North 3.5 mph - N/A   Overcast
9:35 PM 53.6 °F 50.2 °F 88% 30.04 in 10.0 mi NNW 3.5 mph - N/A   Overcast
9:55 PM 53.6 °F 50.0 °F 88% 30.04 in 10.0 mi NNW 6.9 mph - N/A   Overcast
10:15 PM 53.1 °F 50.0 °F 89% 30.04 in 10.0 mi NNW 3.5 mph - N/A   Overcast
10:35 PM 52.9 °F 49.8 °F 89% 30.05 in 10.0 mi North 5.8 mph - N/A   Overcast
10:55 PM 52.9 °F 50.0 °F 90% 30.05 in 10.0 mi North 5.8 mph - N/A   Overcast
11:15 PM 52.7 °F 50.0 °F 91% 30.05 in 10.0 mi NNW 6.9 mph - N/A   Overcast
11:35 PM 52.2 °F 50.0 °F 92% 30.05 in 10.0 mi North 4.6 mph - N/A   Overcast
11:55 PM 51.8 °F 49.5 °F 92% 30.05 in 10.0 mi North 4.6 mph - N/A   Overcast